Location: Austin
(30.3000°N, 97.7500°W)
Time: 22:40:12
(UTC-05:00)

Cosmos 2082 Rocket - Pass Details

Date: 19 March 2026
Orbit: 831 x 854 km, 71.0° (Epoch: 20 April)

Event Time Altitude Azimuth Distance (km) Brightness Sun altitude
Rises 20:01:19 0° 327° (NNW) 3,423 5.9 -5.0°
Reaches altitude 10° 20:04:02 10° 317° (NW) 2,483 5.4 -5.6°
Maximum altitude 20:08:55 30° 258° (WSW) 1,480 4.4 -6.6°
Drops below altitude 10° 20:13:46 10° 198° (SSW) 2,463 4.8 -7.7°
Sets 20:16:28 0° 188° (S) 3,391 5.4 -8.3°
